CW9648 Weather Reports


Display with metric or nautical units.
time (UTC)temp
F
wind
direction
speed
MPH
gust
MPH
rain 1hr
in
rain 24hr
in
rain mn
in
humidity
%
barometer
mb
20260508122504 61 116 0.0 2.0 0.00 0.00 0.00 93 1014.7
20260508122025 61 110 0.0 2.0 0.00 0.00 0.00 93 1014.9
20260508121504 61 121 0.0 2.0 0.00 0.00 0.00 94 1014.9
20260508121004 60 289 0.0 1.0 0.00 0.00 0.00 93 1015.1
20260508120504 60 305 1.0 4.0 0.00 0.00 0.00 93 1015.1
20260508120025 60 330 1.0 4.0 0.00 0.00 0.00 93 1015.2
20260508115504 60 30 1.0 3.0 0.00 0.00 0.00 94 1015.1
20260508115004 60 355 1.0 2.0 0.00 0.00 0.00 94 1014.4
20260508114504 60 289 0.0 2.0 0.00 0.00 0.00 94 1014.6
20260508114004 60 254 0.0 1.0 0.00 0.00 0.00 94 1014.6
20260508113504 60 253 0.0 1.0 0.00 0.00 0.00 94 1014.7
20260508113005 60 243 0.0 1.0 0.00 0.00 0.00 94 1014.8
20260508112504 60 311 0.0 2.0 0.00 0.00 0.00 94 1015.0
20260508112004 60 324 1.0 3.0 0.00 0.00 0.00 94 1015.3
20260508111504 60 327 1.0 3.0 0.00 0.00 0.00 94 1015.4
20260508111004 60 345 1.0 3.0 0.00 0.00 0.00 94 1015.1
20260508110504 60 343 1.0 3.0 0.00 0.00 0.00 93 1015.2
20260508110004 60 339 1.0 3.0 0.00 0.00 0.00 93 1015.2
20260508105525 61 330 0.0 2.0 0.00 0.00 0.00 93 1015.0
20260508105004 61 330 1.0 2.0 0.00 0.00 0.00 93 1015.0
20260508104525 61 319 1.0 2.0 0.00 0.00 0.00 93 1015.2
20260508104004 61 280 1.0 2.0 0.00 0.00 0.00 93 1015.1
20260508103504 61 61 1.0 2.0 0.00 0.00 0.00 93 1014.9
20260508103004 61 44 1.0 2.0 0.00 0.00 0.00 93 1014.7
20260508102504 61 32 0.0 2.0 0.00 0.00 0.00 93 1015.0
20260508102004 61 345 1.0 2.0 0.00 0.00 0.00 93 1015.4
20260508101504 61 329 1.0 3.0 0.00 0.00 0.00 93 1015.6
20260508101004 61 315 0.0 3.0 0.00 0.00 0.00 93 1015.8
20260508100504 61 311 0.0 2.0 0.00 0.00 0.00 93 1015.4
20260508100004 61 311 1.0 2.0 0.00 0.00 0.00 93 1015.5
20260508095504 61 311 0.0 2.0 0.00 0.00 0.00 93 1015.4
20260508095004 61 318 0.0 2.0 0.00 0.00 0.00 93 1015.4
20260508094504 61 339 0.0 2.0 0.00 0.00 0.00 93 1015.2
20260508094004 61 359 1.0 3.0 0.00 0.00 0.00 93 1015.1
20260508093504 61 340 2.0 3.0 0.00 0.00 0.00 93 1014.8
20260508093004 61 321 1.0 3.0 0.00 0.00 0.00 93 1015.0
20260508092504 61 312 1.0 2.0 0.00 0.00 0.00 93 1014.8
20260508092025 61 312 0.0 2.0 0.00 0.00 0.00 93 1014.7
20260508091504 61 312 0.0 2.0 0.00 0.00 0.00 93 1014.7
20260508091004 61 326 0.0 2.0 0.00 0.00 0.00 93 1014.9
20260508090504 61 334 0.0 2.0 0.00 0.00 0.00 93 1014.9
20260508090004 61 0 0.0 0.0 0.00 0.00 0.00 93 1014.8
20260508085504 61 333 0.0 1.0 0.00 0.00 0.00 93 1014.7
20260508085004 61 333 0.0 1.0 0.00 0.00 0.00 93 1014.9
20260508084504 61 333 0.0 1.0 0.00 0.00 0.00 93 1014.9
20260508084025 61 323 0.0 2.0 0.00 0.00 0.00 93 1015.1
20260508083504 61 328 0.0 2.0 0.00 0.00 0.00 93 1015.2
20260508083004 61 22 0.0 1.0 0.00 0.00 0.00 93 1015.1
20260508082525 61 25 0.0 1.0 0.00 0.00 0.00 93 1015.0
20260508082004 60 24 0.0 2.0 0.00 0.00 0.00 93 1015.0
20260508081504 60 360 0.0 2.0 0.00 0.00 0.00 93 1015.3
20260508081004 60 355 1.0 3.0 0.00 0.00 0.00 93 1015.6
20260508080504 60 336 1.0 4.0 0.00 0.00 0.00 93 1015.5
20260508080004 60 326 1.0 4.0 0.00 0.00 0.00 93 1015.7
20260508075504 60 320 0.0 2.0 0.00 0.00 0.00 93 1015.5
20260508075004 60 320 1.0 1.0 0.00 0.00 0.00 93 1015.6
20260508074504 60 320 0.0 1.0 0.00 0.00 0.00 93 1015.6
20260508074004 60 320 0.0 1.0 0.00 0.00 0.00 93 1015.6
20260508073525 60 320 0.0 2.0 0.00 0.00 0.00 93 1015.6
20260508073004 60 320 0.0 2.0 0.00 0.00 0.00 93 1015.6
20260508072504 60 320 0.0 1.0 0.00 0.00 0.00 93 1015.5
20260508072004 60 320 0.0 1.0 0.00 0.00 0.00 93 1015.5
20260508071504 60 320 0.0 1.0 0.00 0.00 0.00 93 1015.6
20260508071004 60 320 0.0 1.0 0.00 0.00 0.00 93 1015.5
20260508070504 60 320 0.0 1.0 0.00 0.00 0.00 93 1015.6
20260508070004 60 320 0.0 2.0 0.00 0.00 0.00 93 1015.5
20260508065504 60 320 1.0 2.0 0.00 0.00 0.00 93 1015.5
20260508065004 60 320 1.0 2.0 0.00 0.00 0.00 93 1015.7
20260508064504 60 320 0.0 2.0 0.00 0.00 0.00 93 1015.7
20260508064004 60 324 1.0 2.0 0.00 0.00 0.00 93 1016.0
20260508063504 60 331 1.0 3.0 0.00 0.00 0.00 93 1015.9
20260508063004 61 324 1.0 4.0 0.00 0.00 0.00 93 1015.7
20260508062504 61 295 1.0 4.0 0.00 0.00 0.00 93 1015.7
20260508062004 61 101 1.0 3.0 0.00 0.00 0.00 93 1015.3
20260508061504 61 345 1.0 4.0 0.00 0.00 0.00 93 1015.3
20260508061025 61 335 1.0 4.0 0.00 0.00 0.00 93 1015.7
20260508060505 61 342 1.0 4.0 0.00 0.00 0.00 93 1015.6
20260508060004 61 352 1.0 4.0 0.00 0.00 0.00 92 1015.6
20260508055504 61 169 1.0 3.0 0.00 0.00 0.00 92 1015.5
20260508055004 61 287 1.0 2.0 0.00 0.00 0.00 92 1015.6
20260508054504 61 312 1.0 2.0 0.00 0.00 0.00 92 1016.3
20260508054004 61 355 0.0 2.0 0.00 0.00 0.00 92 1016.1
20260508053504 61 355 0.0 2.0 0.00 0.00 0.00 92 1015.7
20260508053004 61 0 0.0 0.0 0.00 0.00 0.00 92 1016.0
20260508052504 61 355 0.0 1.0 0.00 0.00 0.00 92 1016.1
20260508052004 61 355 0.0 1.0 0.00 0.00 0.00 92 1016.2
20260508051504 61 337 2.0 5.0 0.00 0.00 0.00 92 1016.1
20260508051004 61 339 2.0 5.0 0.00 0.00 0.00 92 1016.2
20260508050504 62 121 1.0 4.0 0.00 0.00 0.00 92 1016.2
20260508050004 62 73 1.0 2.0 0.00 0.00 0.00 92 1015.7
20260508045525 61 342 2.0 4.0 0.00 0.00 0.00 92 1015.9
20260508045004 61 335 2.0 4.0 0.00 0.00 0.00 92 1016.1
20260508044504 61 339 1.0 3.0 0.00 0.00 0.00 91 1016.1
20260508044004 62 348 0.0 2.0 0.00 0.00 0.00 92 1015.5
20260508043504 62 348 0.0 2.0 0.00 0.00 0.00 91 1015.5
20260508043004 62 348 0.0 2.0 0.00 0.00 0.00 91 1015.6
20260508042504 62 348 0.0 1.0 0.00 0.00 0.00 91 1015.7
20260508042004 62 348 0.0 1.0 0.00 0.00 0.00 91 1015.7
20260508041504 62 348 0.0 1.0 0.00 0.00 0.00 91 1015.7
20260508041004 62 348 0.0 1.0 0.00 0.00 0.00 91 1016.0
20260508040504 62 348 0.0 1.0 0.00 0.00 0.00 90 1016.0
20260508040004 62 348 0.0 1.0 0.00 0.00 0.00 91 1016.1
20260508035504 62 347 0.0 2.0 0.00 0.00 0.00 91 1016.0
20260508035024 62 347 0.0 2.0 0.00 0.00 0.00 90 1016.0
20260508034504 62 0 0.0 0.0 0.00 0.00 0.00 90 1016.0
20260508034004 62 322 0.0 2.0 0.00 0.00 0.00 90 1016.0
20260508033504 62 334 1.0 3.0 0.00 0.00 0.00 90 1016.2
20260508033004 62 344 1.0 3.0 0.00 0.00 0.00 90 1016.0
20260508032504 62 343 1.0 3.0 0.00 0.00 0.00 90 1016.0
20260508032004 62 330 0.0 2.0 0.00 0.00 0.00 90 1015.9
20260508031503 62 330 0.0 2.0 0.00 0.00 0.00 89 1016.1
20260508031004 62 330 0.0 2.0 0.00 0.00 0.00 89 1016.2
20260508030503 62 0 0.0 0.0 0.00 0.00 0.00 89 1016.3
20260508030024 62 0 0.0 0.0 0.00 0.00 0.00 88 1016.3
20260508025525 62 0 0.0 0.0 0.00 0.00 0.00 88 1016.4
20260508025025 62 330 0.0 1.0 0.00 0.00 0.00 87 1016.4
20260508024524 63 330 0.0 1.0 0.00 0.00 0.00 87 1016.3
20260508024003 63 0 0.0 0.0 0.00 0.00 0.00 87 1016.5
20260508023504 63 0 0.0 0.0 0.00 0.00 0.00 86 1016.4
20260508023003 63 330 0.0 2.0 0.00 0.00 0.00 86 1016.1
20260508022504 63 330 0.0 2.0 0.00 0.00 0.00 86 1016.1
20260508022003 63 330 0.0 2.0 0.00 0.00 0.00 86 1016.2
20260508021504 63 330 0.0 2.0 0.00 0.00 0.00 86 1016.0
20260508021004 63 330 0.0 2.0 0.00 0.00 0.00 86 1015.8
20260508020525 63 328 1.0 2.0 0.00 0.00 0.00 86 1015.8
20260508020004 64 314 1.0 2.0 0.00 0.00 0.00 86 1016.0
20260508015525 64 164 0.0 2.0 0.00 0.00 0.00 86 1016.0
20260508015004 64 300 0.0 3.0 0.00 0.00 0.00 85 1016.0
20260508014504 64 317 1.0 3.0 0.00 0.00 0.00 84 1016.1
20260508014025 64 337 1.0 5.0 0.00 0.00 0.00 83 1016.1
20260508013504 64 332 2.0 5.0 0.00 0.00 0.00 83 1016.0
20260508013004 64 317 3.0 5.0 0.00 0.00 0.00 84 1016.1
20260508012504 64 311 2.0 4.0 0.00 0.00 0.00 84 1016.0
20260508012004 64 318 1.0 4.0 0.00 0.00 0.00 84 1015.8
20260508011524 64 344 1.0 4.0 0.00 0.00 0.00 84 1015.5
20260508011003 65 337 1.0 4.0 0.00 0.00 0.00 84 1015.3
20260508010504 65 317 1.0 4.0 0.00 0.00 0.00 83 1015.1
20260508010004 65 167 1.0 5.0 0.00 0.00 0.00 83 1015.2
20260508005504 65 153 1.0 5.0 0.00 0.00 0.00 82 1015.0
20260508005003 65 124 1.0 2.0 0.00 0.00 0.00 81 1015.3
20260508004504 66 14 1.0 3.0 0.00 0.00 0.00 81 1015.5
20260508004004 66 345 1.0 3.0 0.00 0.00 0.00 81 1016.0
20260508003503 66 337 1.0 5.0 0.00 0.00 0.00 81 1015.9
20260508003004 66 333 2.0 5.0 0.00 0.00 0.00 81 1016.1
20260508002525 66 336 2.0 4.0 0.00 0.00 0.00 81 1015.9
20260508002004 66 338 1.0 3.0 0.00 0.00 0.00 82 1015.9
20260508001504 67 302 1.0 6.0 0.00 0.00 0.00 80 1015.6
20260508001003 67 302 3.0 6.0 0.00 0.00 0.00 79 1015.4
20260508000504 67 270 3.0 6.0 0.00 0.00 0.00 79 1015.2
20260508000004 67 145 2.0 5.0 0.00 0.00 0.00 80 1014.5
20260507235504 67 93 1.0 3.0 0.00 0.00 0.00 79 1014.4
20260507235004 67 334 1.0 2.0 0.00 0.00 0.00 79 1015.2
20260507234504 68 315 1.0 3.0 0.00 0.00 0.00 78 1015.5
20260507234004 68 330 1.0 3.0 0.00 0.00 0.00 78 1015.5
20260507233504 68 27 1.0 3.0 0.00 0.00 0.00 78 1015.5
20260507233024 68 26 1.0 3.0 0.00 0.00 0.00 78 1015.2
20260507232504 68 344 2.0 3.0 0.00 0.00 0.00 78 1015.8
20260507232004 69 343 1.0 3.0 0.00 0.00 0.00 78 1016.1
20260507231503 69 83 0.0 2.0 0.00 0.02 0.00 75 1015.6
20260507231003 70 76 0.0 2.0 0.00 0.02 0.00 74 1015.6
20260507230503 70 9 0.0 2.0 0.00 0.02 0.00 73 1015.7
20260507230004 70 355 0.0 2.0 0.00 0.02 0.00 73 1016.0
20260507225503 70 355 0.0 1.0 0.00 0.02 0.00 73 1015.9
20260507225003 70 351 0.0 2.0 0.00 0.02 0.00 72 1016.1
20260507224504 70 352 2.0 5.0 0.00 0.02 0.00 70 1016.1
20260507224003 70 340 3.0 6.0 0.00 0.02 0.00 70 1016.3
20260507223503 71 333 3.0 6.0 0.00 0.02 0.00 70 1016.4
20260507223003 71 336 2.0 5.0 0.00 0.02 0.00 70 1016.5
20260507222503 71 340 2.0 4.0 0.00 0.02 0.00 70 1016.4
20260507222024 71 334 2.0 4.0 0.00 0.02 0.00 69 1016.3
20260507221503 71 329 3.0 6.0 0.00 0.02 0.00 69 1016.2
20260507221003 72 325 2.0 6.0 0.00 0.02 0.00 68 1016.0
20260507220503 72 319 1.0 4.0 0.00 0.02 0.00 69 1015.8
20260507220004 72 22 1.0 3.0 0.00 0.02 0.00 71 1015.6
20260507215503 72 352 1.0 4.0 0.00 0.02 0.00 71 1015.5
20260507215025 72 347 2.0 6.0 0.00 0.02 0.00 70 1015.5
20260507214503 72 351 2.0 6.0 0.00 0.02 0.00 69 1015.6
20260507214024 72 347 2.0 4.0 0.00 0.02 0.00 70 1015.6
20260507213503 72 350 2.0 4.0 0.00 0.02 0.00 67 1015.2
20260507213003 72 354 2.0 4.0 0.00 0.02 0.00 69 1015.5
20260507212524 72 359 2.0 5.0 0.00 0.02 0.00 68 1015.5
20260507212003 72 352 2.0 5.0 0.00 0.02 0.00 66 1015.6
20260507211504 72 6 2.0 7.0 0.00 0.02 0.00 65 1015.6
20260507211004 73 5 3.0 8.0 0.00 0.02 0.00 66 1015.8
20260507210504 73 357 3.0 8.0 0.00 0.02 0.00 66 1016.0
20260507210004 73 4 2.0 8.0 0.00 0.02 0.00 66 1016.1
20260507205503 73 7 2.0 5.0 0.00 0.02 0.00 67 1016.0
20260507205003 73 9 2.0 7.0 0.00 0.02 0.00 67 1016.1
20260507204504 72 9 3.0 10.0 0.00 0.02 0.00 68 1016.6
20260507204024 71 359 4.0 10.0 0.00 0.02 0.00 69 1016.5
20260507203504 71 334 4.0 11.0 0.00 0.02 0.00 68 1016.7
20260507203003 71 330 3.0 11.0 0.00 0.02 0.00 68 1016.5
20260507202504 71 339 3.0 9.0 0.00 0.02 0.00 70 1017.0
20260507202004 70 340 3.0 7.0 0.00 0.02 0.00 69 1017.1
20260507201503 71 349 2.0 8.0 0.00 0.02 0.00 70 1017.1
20260507201003 70 337 3.0 8.0 0.00 0.02 0.00 72 1016.8
20260507200503 70 332 3.0 8.0 0.00 0.02 0.00 71 1016.8
20260507200024 69 334 3.0 6.0 0.00 0.02 0.00 74 1016.9
20260507195503 69 334 3.0 6.0 0.00 0.02 0.00 74 1017.2
20260507195003 69 335 4.0 10.0 0.00 0.02 0.00 73 1017.0
20260507194504 68 337 4.0 10.0 0.00 0.02 0.00 73 1017.0
20260507194024 69 341 3.0 8.0 0.00 0.02 0.00 73 1016.9
20260507193503 69 346 4.0 12.0 0.00 0.02 0.00 72 1016.7
20260507193003 69 346 4.0 12.0 0.00 0.02 0.00 71 1016.9
20260507192503 69 342 3.0 6.0 0.00 0.02 0.00 72 1017.2
20260507192003 70 335 2.0 8.0 0.00 0.02 0.00 71 1017.1
20260507191503 70 332 3.0 8.0 0.00 0.02 0.00 70 1017.2
20260507191003 70 328 4.0 8.0 0.00 0.02 0.00 70 1017.3
20260507190504 70 329 4.0 9.0 0.00 0.02 0.00 69 1017.3
20260507190005 70 331 4.0 9.0 0.00 0.02 0.00 69 1017.1
20260507185503 70 327 4.0 10.0 0.00 0.02 0.00 68 1017.2
20260507185003 70 321 5.0 11.0 0.00 0.02 0.00 69 1017.3
20260507184504 70 322 5.0 11.0 0.00 0.02 0.00 68 1017.8
20260507184003 70 331 4.0 9.0 0.00 0.02 0.00 70 1017.6
20260507183524 70 333 4.0 9.0 0.00 0.02 0.00 69 1017.5
20260507183003 71 335 4.0 9.0 0.00 0.02 0.00 68 1017.4
20260507182503 71 323 4.0 9.0 0.00 0.02 0.00 70 1017.4
20260507182024 70 323 3.0 9.0 0.00 0.02 0.00 67 1017.4
20260507181504 71 346 2.0 7.0 0.00 0.02 0.00 69 1017.8
20260507181003 70 344 3.0 7.0 0.00 0.02 0.00 69 1017.7
20260507180503 70 20 2.0 5.0 0.00 0.02 0.00 68 1017.6
20260507180003 70 10 2.0 6.0 0.00 0.02 0.00 71 1017.6
20260507175503 70 4 2.0 6.0 0.00 0.02 0.00 69 1017.5
20260507175003 70 43 2.0 6.0 0.00 0.02 0.00 69 1017.7
20260507174503 70 33 3.0 8.0 0.00 0.02 0.00 68 1017.8
20260507174003 70 2 3.0 9.0 0.00 0.02 0.00 69 1017.8
20260507173503 70 357 2.0 9.0 0.00 0.02 0.00 69 1017.8
20260507173024 70 43 2.0 6.0 0.00 0.02 0.00 71 1017.4
20260507172503 70 351 3.0 11.0 0.00 0.02 0.00 72 1017.1
20260507172003 68 332 4.0 11.0 0.00 0.02 0.00 75 1017.1
20260507171503 68 333 4.0 12.0 0.00 0.02 0.00 74 1017.4
20260507171003 68 343 4.0 12.0 0.00 0.02 0.00 73 1017.4
20260507170503 68 336 4.0 11.0 0.00 0.02 0.00 73 1017.3
20260507170003 67 330 5.0 11.0 0.00 0.02 0.00 74 1017.4
20260507165504 67 341 4.0 9.0 0.00 0.02 0.00 75 1017.2
20260507165003 67 12 3.0 8.0 0.00 0.02 0.00 73 1017.4
20260507164503 67 23 3.0 7.0 0.00 0.02 0.00 74 1018.0
20260507164024 67 2 3.0 8.0 0.00 0.02 0.00 74 1017.6
20260507163524 66 356 3.0 8.0 0.00 0.02 0.00 77 1017.7
20260507163025 66 356 3.0 5.0 0.00 0.02 0.00 77 1018.2
20260507162504 65 340 3.0 9.0 0.00 0.02 0.00 77 1018.5
20260507162004 65 352 3.0 9.0 0.00 0.02 0.00 75 1018.4
20260507161504 65 12 3.0 6.0 0.00 0.02 0.00 77 1018.2
20260507161004 64 40 2.0 6.0 0.00 0.02 0.00 78 1018.3
20260507160504 64 53 2.0 5.0 0.00 0.02 0.00 79 1018.6
20260507160004 63 18 2.0 6.0 0.00 0.02 0.00 80 1018.8
20260507155504 62 347 3.0 6.0 0.00 0.02 0.00 80 1018.8
20260507155004 62 340 3.0 6.0 0.00 0.02 0.00 80 1018.5
20260507154525 62 340 4.0 13.0 0.00 0.02 0.00 80 1018.7
20260507154025 62 336 5.0 13.0 0.00 0.02 0.00 80 1018.6
20260507153504 62 333 4.0 11.0 0.00 0.02 0.00 79 1018.7
20260507153004 62 353 3.0 11.0 0.00 0.02 0.00 80 1018.6
20260507152504 62 47 2.0 5.0 0.00 0.02 0.00 80 1018.8
20260507152004 62 21 2.0 6.0 0.00 0.02 0.00 81 1018.8
20260507151504 62 355 3.0 6.0 0.00 0.02 0.00 81 1019.1
20260507151025 62 355 3.0 7.0 0.00 0.02 0.00 81 1019.1
20260507150504 61 346 4.0 11.0 0.00 0.02 0.00 82 1018.9
20260507150005 61 346 4.0 11.0 0.00 0.02 0.00 82 1018.7
20260507145504 60 343 4.0 11.0 0.00 0.02 0.00 82 1018.9
20260507145004 61 344 4.0 11.0 0.00 0.02 0.00 82 1019.2
20260507144525 61 355 3.0 7.0 0.00 0.02 0.00 83 1018.9
20260507144004 60 1 2.0 5.0 0.00 0.02 0.00 84 1018.8
20260507143504 60 30 1.0 4.0 0.00 0.02 0.00 85 1019.0
20260507143004 60 12 2.0 6.0 0.00 0.02 0.00 85 1019.1
20260507142504 60 11 2.0 6.0 0.00 0.02 0.00 86 1019.0
20260507142004 59 339 3.0 10.0 0.00 0.02 0.00 86 1019.0
20260507141504 59 340 4.0 11.0 0.00 0.02 0.00 86 1019.0
20260507141004 59 340 4.0 11.0 0.00 0.02 0.00 85 1019.0
20260507140504 59 336 4.0 11.0 0.00 0.02 0.00 86 1019.0
20260507140004 59 341 4.0 11.0 0.00 0.02 0.00 87 1018.9
20260507135504 58 341 3.0 7.0 0.00 0.02 0.00 88 1018.9
20260507135004 58 333 4.0 11.0 0.00 0.02 0.00 88 1019.1
20260507134504 57 326 6.0 12.0 0.00 0.02 0.00 88 1019.2
20260507134004 57 329 5.0 12.0 0.00 0.02 0.00 89 1019.2
20260507133504 57 332 4.0 10.0 0.00 0.02 0.00 89 1019.1
20260507133004 57 333 3.0 10.0 0.00 0.02 0.00 90 1018.8
20260507132525 57 342 2.0 8.0 0.00 0.02 0.00 90 1018.4
20260507132004 57 337 2.0 9.0 0.00 0.02 0.00 90 1018.1
20260507131504 57 360 2.0 9.0 0.00 0.02 0.00 90 1017.7
20260507131025 57 29 2.0 6.0 0.00 0.02 0.00 90 1017.6
20260507130504 56 342 3.0 11.0 0.00 0.02 0.00 91 1018.0
20260507130004 56 342 4.0 11.0 0.00 0.02 0.00 91 1018.1
20260507125504 56 343 2.0 8.0 0.00 0.02 0.00 91 1018.1
20260507125004 56 344 3.0 10.0 0.00 0.02 0.00 91 1018.1
20260507124504 56 346 3.0 10.0 0.00 0.02 0.00 91 1017.9
20260507124004 56 343 3.0 8.0 0.00 0.02 0.00 92 1017.8
20260507123504 56 344 3.0 8.0 0.00 0.02 0.00 92 1017.9
20260507123004 56 338 3.0 8.0 0.00 0.02 0.00 92 1018.0